[[{"header":{"parameterUnit":"m.s-1","parameterCategory":1,"la1":30.2991,"la2":30.254,"lo1":-89.0895,"lo2":-89.0444,"dy":0.0017,"dx":0.0017,"nx":28,"ny":28,"refTime":"2023-08-04T03:00:00:Z","depth":0,"parameterNumber":2,"parameterNumberName":"U-component_of_WINDS"},"data":[0,0,0,0,0,0,0,0,0,0,0,0,0,0,0,0,0,0,0,0,0,0,0,0,0,0,0,0,0,0,0,0,0,0,0,0,0,0,0,0,0,0,0,0,0,0,0,0,0,0,0,0,0,0,0,0,0,0,0.7651,0.7651,0,0.7716,0.7717,0.7718,0.7719,0.7718,0.7717,0.7716,0.7781,0.7783,0.7786,0,0,0,0,0,0,0,0,0,0,0,0,0,0.7523,0.7525,0.7651,0.7651,0.7652,0.7716,0.7717,0.7718,0.7719,0.7718,0.7717,0.7716,0.778,0.7783,0.7786,0,0,0,0,0,0,0,0,0,0,0,0,0,0.7582,0.7526,0.765,0.7661,0.7662,0.7716,0.7717,0.7718,0.7719,0.7718,0.7717,0.7716,0.7779,0.7783,0.7786,0.7834,0,0,0.7798,0.7799,0,0,0,0,0,0,0,0,0.7579,0.7587,0.7658,0.766,0.7662,0.7708,0.7696,0.7757,0.772,0.7697,0.7716,0.7715,0.7758,0.7763,0.7778,0.7837,0.7839,0.7798,0.78,0.7802,0.7803,0,0,0,0,0,0,0,0.7575,0.7584,0.7676,0.7659,0.7662,0.7661,0.7668,0.7707,0.7733,0.7699,0.77,0.7707,0.7758,0.7774,0.7779,0.784,0.7798,0.7801,0.7803,0.7805,0.794,0.7941,0,0,0,0,0,0,0.7569,0.7581,0.7674,0.7678,0.7617,0.7664,0.7672,0.7694,0.7733,0.7738,0.7708,0.7707,0.7768,0.7775,0.7782,0.7839,0.7802,0.7805,0.7807,0.7938,0.794,0.7942,0,0,0,0,0,0,0.7566,0.7577,0.7672,0.763,0.7642,0.7668,0.7693,0.7696,0.7712,0.774,0.7744,0.772,0.7768,0.7776,0.7821,0.7841,0.7807,0.781,0.7937,0.7939,0.7941,0.7953,0,0,0,0,0,0,0.7563,0.7577,0.7596,0.763,0.7644,0.7711,0.7694,0.7699,0.7719,0.7718,0.7752,0.7757,0.7767,0.7815,0.7824,0.7845,0.7813,0.7935,0.7938,0.794,0.7951,0.7956,0.7959,0,0,0,0,0,0.7558,0.7596,0.7597,0.7608,0.7669,0.7712,0.772,0.7732,0.7721,0.774,0.7757,0.7755,0.7837,0.782,0.783,0.7852,0.7934,0.7937,0.794,0.7949,0.7955,0.7959,0,0,0,0,0,0,0.7562,0.7601,0.7602,0.7652,0.7679,0.7712,0.7736,0.7738,0.7767,0.7765,0.7779,0.7786,0.783,0.7846,0.7825,0.7899,0.7884,0.7889,0.7888,0.7893,0.7897,0.7892,0.7816,0,0,0,0,0,0.7569,0.7602,0.7634,0.7675,0.7689,0.771,0.773,0.7737,0.7765,0.7776,0.7796,0.7823,0.7854,0.7874,0.7905,0.7954,0.796,0.7974,0.7978,0.7981,0.7985,0.8011,0.8017,0.7952,0.7952,0.7952,0,0,0.7584,0.7609,0.7629,0.7677,0.7698,0.7731,0.772,0.7755,0.7779,0.7781,0.7824,0.784,0.787,0.7916,0.7938,0.7931,0.8005,0.7985,0.7988,0.799,0.8015,0.8021,0.8027,0.7954,0.7953,0.7953,0,0,0.7626,0.7649,0.7686,0.7708,0.7741,0.7755,0.7764,0.7797,0.7808,0.7851,0.7853,0.7881,0.7935,0.7956,0.7974,0.8024,0.8023,0.8034,0.8054,0.8079,0.8085,0.8089,0.8106,0.8112,0.8038,0.8038,0.8038,0,0.764,0.7691,0.7704,0.774,0.776,0.7764,0.7801,0.7821,0.7862,0.7875,0.7867,0.7935,0.7955,0.8006,0.8018,0.8033,0.8042,0.803,0.8083,0.8088,0.8092,0.8108,0.8115,0.8039,0.8039,0.8039,0.8039,0,0.7705,0.774,0.7765,0.7805,0.7829,0.7865,0.7883,0.7904,0.791,0.7924,0.7968,0.7992,0.8027,0.804,0.8045,0.8091,0.8086,0.808,0.8065,0.8099,0.8115,0.8121,0.804,0.804,0.804,0.8039,0,0,0.7752,0.7799,0.7808,0.7826,0.7863,0.7889,0.7925,0.796,0.7978,0.8006,0.8035,0.808,0.8075,0.8095,0.8103,0.8125,0.8161,0.8116,0.8117,0.8123,0.8212,0.8216,0.8223,0.8161,0.8163,0.8164,0.8209,0,0.7798,0.7862,0.7875,0.793,0.7962,0.7966,0.7997,0.8021,0.8036,0.8064,0.8079,0.8111,0.8102,0.8114,0.8136,0.8152,0.8179,0.8149,0.8187,0.8188,0.8179,0.8231,0.8235,0.8277,0.8216,0.8217,0.8218,0,0.786,0.789,0.7949,0.7981,0.7994,0.8022,0.8055,0.8082,0.811,0.8118,0.8141,0.8146,0.8181,0.8164,0.8213,0.8192,0.8208,0.8218,0.822,0.8224,0.8205,0.8235,0.8291,0.8297,0.8227,0.8227,0.8226,0,0.7887,0.7943,0.7985,0.8,0.8038,0.8057,0.8074,0.8101,0.8121,0.8149,0.8162,0.8194,0.8211,0.8235,0.8247,0.8234,0.8294,0.8279,0.8301,0.8301,0.8313,0.8312,0.8372,0.8325,0.8325,0.8325,0.8325,0,0.7937,0.7972,0.7997,0.8023,0.8062,0.8077,0.8114,0.8131,0.8154,0.8182,0.8187,0.8213,0.8229,0.8257,0.8267,0.8305,0.8312,0.8319,0.8322,0.8319,0.8318,0.8329,0.8326,0.8327,0.8326,0.8326,0.8326,0,0.7974,0.7992,0.8038,0.8071,0.808,0.8107,0.8134,0.8158,0.8173,0.8208,0.8217,0.8239,0.8271,0.8287,0.8327,0.8334,0.8377,0.8377,0.8367,0.8368,0.8389,0.8387,0.8458,0.8467,0.8415,0.8415,0.8416,0,0.8004,0.8031,0.8067,0.8087,0.8104,0.8135,0.8156,0.8171,0.8192,0.8225,0.8245,0.8279,0.8306,0.8358,0.8376,0.8407,0.8408,0.843,0.8412,0.8408,0.8407,0.8405,0.8407,0.8433,0.8434,0.8434,0.8435,0,0.8055,0.8062,0.8093,0.8126,0.8151,0.8178,0.8204,0.8219,0.8238,0.8261,0.8295,0.8316,0.8358,0.839,0.8422,0.8437,0.8439,0.844,0.8447,0.8444,0.8437,0.844,0.8375,0.8439,0.8438,0.8438,0.8438,0.8438,0.8088,0.8112,0.8142,0.8175,0.8196,0.8221,0.8245,0.8262,0.8292,0.8327,0.8334,0.837,0.8396,0.8439,0.8455,0.8483,0.8477,0.8487,0.8489,0.8491,0.8492,0.8433,0.8489,0.8488,0.8488,0.8488,0.8488,0,0.8139,0.8158,0.8188,0.8225,0.8251,0.8251,0.828,0.8301,0.8333,0.8358,0.8385,0.8423,0.8455,0.8476,0.8507,0.8525,0.8526,0.8533,0.8531,0.8534,0.8496,0.8486,0.8531,0.8531,0.8531,0.8531,0.8531,0.8531,0.8168,0.8209,0.822,0.8271,0.8289,0.8325,0.8341,0.8363,0.8383,0.8426,0.8453,0.8467,0.849,0.8523,0.8551,0.8556,0.8567,0.8573,0.8578,0.8542,0.8537,0.8533,0.8524,0.8576,0.8576,0.8615,0.8615,0.8615]},{"header":{"parameterUnit":"m.s-1","parameterCategory":1,"la1":30.2991,"la2":30.254,"lo1":-89.0895,"lo2":-89.0444,"dy":0.0017,"dx":0.0017,"nx":28,"ny":28,"refTime":"2023-08-04T03:00:00:Z","depth":0,"parameterNumber":3,"parameterNumberName":"V-component_of_WINDS"},"data":[0,0,0,0,0,0,0,0,0,0,0,0,0,0,0,0,0,0,0,0,0,0,0,0,0,0,0,0,0,0,0,0,0,0,0,0,0,0,0,0,0,0,0,0,0,0,0,0,0,0,0,0,0,0,0,0,0,0,6.0561,6.0561,0,6.0548,6.0548,6.0548,6.0474,6.0472,6.0471,6.0469,6.0457,6.0458,6.046,0,0,0,0,0,0,0,0,0,0,0,0,0,6.0522,6.0523,6.0561,6.0561,6.0561,6.0548,6.0548,6.0548,6.0475,6.0472,6.047,6.0468,6.0457,6.0458,6.046,0,0,0,0,0,0,0,0,0,0,0,0,0,6.0528,6.0524,6.0561,6.0523,6.0519,6.0549,6.0548,6.0548,6.0475,6.0472,6.047,6.0467,6.0456,6.0458,6.046,6.0526,0,0,6.0466,6.0467,0,0,0,0,0,0,0,0,6.0527,6.0529,6.0528,6.0525,6.0521,6.051,6.053,6.0541,6.0476,6.0492,6.0469,6.0466,6.0477,6.0477,6.0481,6.0526,6.0525,6.0467,6.0468,6.0469,6.0469,0,0,0,0,0,0,0,6.0527,6.0529,6.0556,6.0529,6.0524,6.0506,6.0504,6.0532,6.05,6.049,6.0485,6.0484,6.0475,6.0479,6.048,6.0525,6.0466,6.0468,6.0469,6.047,6.0622,6.0625,0,0,0,0,0,0,6.0532,6.0529,6.0557,6.0556,6.0518,6.0509,6.0507,6.0517,6.0499,6.0494,6.0487,6.0481,6.0477,6.0478,6.0479,6.0554,6.0469,6.047,6.0472,6.062,6.0623,6.0626,0,0,0,0,0,0,6.0531,6.0535,6.0557,6.0541,6.0542,6.0513,6.0524,6.0518,6.0522,6.0496,6.049,6.0497,6.0475,6.0476,6.0515,6.0553,6.0471,6.0473,6.0616,6.0621,6.0625,6.0706,0,0,0,0,0,0,6.0531,6.0535,6.056,6.0542,6.0544,6.0593,6.0527,6.0519,6.0525,6.0518,6.0504,6.05,6.0473,6.0512,6.0517,6.0554,6.0475,6.0613,6.0618,6.0623,6.07,6.0712,6.0723,0,0,0,0,0,6.053,6.0584,6.0562,6.0565,6.0574,6.0595,6.0596,6.0564,6.0529,6.0553,6.0537,6.05,6.0548,6.0517,6.0521,6.056,6.061,6.0617,6.0623,6.0694,6.071,6.0723,0,0,0,0,0,0,6.0607,6.0581,6.0556,6.0606,6.0603,6.0583,6.0612,6.0581,6.0589,6.0581,6.0541,6.0539,6.0583,6.0576,6.0541,6.0623,6.0573,6.0581,6.0626,6.064,6.0652,6.0652,6.0476,0,0,0,0,0,6.063,6.065,6.0625,6.0672,6.0672,6.0643,6.0651,6.0626,6.0622,6.0621,6.0607,6.0605,6.0619,6.0629,6.0641,6.0699,6.0694,6.0728,6.0739,6.0749,6.0756,6.0785,6.0799,6.0647,6.0647,6.0647,0,0,6.0678,6.0666,6.068,6.0687,6.0682,6.0703,6.0642,6.0667,6.0682,6.0624,6.0659,6.065,6.0644,6.0692,6.0713,6.0687,6.0797,6.0757,6.0765,6.0767,6.0793,6.0807,6.082,6.0651,6.0651,6.065,0,0,6.0775,6.0768,6.0806,6.0802,6.0795,6.0775,6.0784,6.0768,6.0759,6.0794,6.0751,6.0768,6.0794,6.0792,6.0795,6.0891,6.0857,6.0896,6.0958,6.0986,6.0998,6.1009,6.1042,6.1055,6.0903,6.0904,6.0904,0,6.0835,6.0864,6.0829,6.0856,6.0861,6.0809,6.0847,6.0845,6.0843,6.0847,6.0818,6.0849,6.0842,6.0889,6.0912,6.0916,6.0925,6.0897,6.1,6.101,6.1019,6.105,6.1063,6.0908,6.0908,6.0907,6.0907,0,6.0938,6.0959,6.0991,6.0989,6.0997,6.1029,6.0999,6.1011,6.0986,6.097,6.1005,6.0995,6.1004,6.1013,6.0989,6.1056,6.104,6.1007,6.0955,6.1039,6.1068,6.1079,6.0915,6.0913,6.0912,6.0911,0,0,6.1083,6.1061,6.1073,6.1072,6.106,6.1076,6.1107,6.1115,6.1126,6.1126,6.115,6.1173,6.1142,6.1145,6.112,6.1146,6.1222,6.1108,6.1108,6.1129,6.1294,6.1319,6.1333,6.12,6.1202,6.1204,6.1294,0,6.1176,6.1225,6.1194,6.1249,6.1268,6.1219,6.1245,6.1242,6.1227,6.1241,6.1225,6.1242,6.1199,6.12,6.1224,6.1208,6.1254,6.1201,6.1221,6.1223,6.1223,6.1348,6.1375,6.1461,6.1305,6.1307,6.1309,0,6.129,6.1294,6.1351,6.1335,6.1342,6.1366,6.137,6.1385,6.1379,6.1367,6.137,6.1339,6.1368,6.1319,6.1357,6.1322,6.1329,6.1322,6.1325,6.1325,6.127,6.1351,6.1487,6.15,6.1326,6.1325,6.1324,0,6.1389,6.1409,6.1445,6.1445,6.1428,6.1446,6.144,6.1432,6.1439,6.1443,6.1447,6.1455,6.1459,6.1467,6.1439,6.1406,6.1481,6.143,6.1471,6.1472,6.1489,6.1488,6.1627,6.1495,6.1495,6.1495,6.1494,0,6.1494,6.153,6.1489,6.1511,6.155,6.1515,6.1554,6.1543,6.1536,6.1556,6.1515,6.1534,6.1496,6.1512,6.149,6.1525,6.1528,6.1519,6.1512,6.1522,6.1523,6.1525,6.1518,6.1498,6.1497,6.1497,6.1496,0,6.1611,6.1585,6.1621,6.1601,6.1598,6.1627,6.1611,6.163,6.1613,6.1638,6.1642,6.1615,6.1631,6.1604,6.1617,6.1602,6.1651,6.1636,6.1653,6.1648,6.1691,6.1687,6.1835,6.1853,6.1711,6.1712,6.1713,0,6.168,6.1706,6.1689,6.1699,6.1695,6.1711,6.1717,6.1684,6.1692,6.1688,6.1708,6.1721,6.1728,6.1756,6.1738,6.1748,6.1732,6.1783,6.1733,6.1742,6.1732,6.173,6.1732,6.1793,6.1795,6.1797,6.1798,0,6.1804,6.1789,6.18,6.1806,6.1814,6.1818,6.1818,6.1829,6.1793,6.1804,6.1819,6.1826,6.1839,6.1851,6.1856,6.185,6.1818,6.1814,6.1824,6.1833,6.1841,6.1836,6.168,6.181,6.1809,6.1808,6.1807,6.1807,6.1898,6.1918,6.191,6.1923,6.1919,6.1921,6.1938,6.1923,6.1935,6.1942,6.1921,6.1942,6.1935,6.1939,6.1936,6.1952,6.1929,6.1944,6.1947,6.1951,6.1957,6.184,6.1953,6.1952,6.1952,6.1952,6.1951,0,6.2019,6.2011,6.2023,6.2024,6.2034,6.2003,6.2002,6.2013,6.203,6.2027,6.2036,6.2053,6.2065,6.2048,6.2058,6.2073,6.2059,6.2077,6.2075,6.2074,6.1978,6.1968,6.2088,6.2088,6.2088,6.2088,6.2088,6.2088,6.2083,6.2116,6.2101,6.2132,6.2124,6.2143,6.2145,6.2146,6.2143,6.2164,6.2173,6.2162,6.2153,6.2161,6.2171,6.2166,6.2171,6.2194,6.2184,6.2094,6.2081,6.2068,6.2058,6.2196,6.2196,6.2278,6.2279,6.2279]}]]